This is the latest recevied weather packets stored in our database for station/object W1ERB-13. If no packets are shown the sender has not sent any weather packets the latest 10 day(s).
| Time | Temp. | Humidity | Pressure | Rain* | Wind** | Luminosity | Snow |
|---|---|---|---|---|---|---|---|
| 1777490162 | 17.78° C | 53% | 1012 hPa | 0 mm | - | 358 W/m² | - |
| 1777489860 | 17.22° C | 53% | 1012.2 hPa | 0 mm | - | 335 W/m² | - |
| 1777489557 | 17.78° C | 53% | 1012.2 hPa | 0 mm | - | 343 W/m² | - |
| 1777489254 | 17.78° C | 51% | 1012.2 hPa | 0 mm | - | 351 W/m² | - |
| 1777488951 | 17.78° C | 51% | 1012.3 hPa | 0 mm | - | 322 W/m² | - |
| 1777488648 | 18.89° C | 50% | 1012.5 hPa | 0 mm | - | 303 W/m² | - |
| 1777488346 | 18.33° C | 50% | 1012.6 hPa | 0 mm | - | 347 W/m² | - |
| 1777488044 | 17.78° C | 52% | 1012.8 hPa | 0 mm | - | 358 W/m² | - |
| 1777487741 | 18.33° C | 49% | 1013 hPa | 0 mm | - | 307 W/m² | - |
| 1777487439 | 17.78° C | 52% | 1012.9 hPa | 0 mm | - | 302 W/m² | - |
| 1777487136 | 18.33° C | 53% | 1013 hPa | 0 mm | - | 313 W/m² | - |
| 1777486832 | 17.78° C | 51% | 1012.8 hPa | 0 mm | - | 363 W/m² | - |
| 1777486529 | 18.33° C | 50% | 1012.9 hPa | 0 mm | - | 447 W/m² | - |
| 1777486227 | 19.44° C | 49% | 1012.9 hPa | 0 mm | - | 503 W/m² | - |
| 1777485925 | 18.89° C | 53% | 1012.9 hPa | 0 mm | - | 480 W/m² | - |
| 1777485620 | 17.78° C | 51% | 1013 hPa | 0 mm | - | 445 W/m² | - |
| 1777485315 | 18.33° C | 52% | 1013 hPa | 0 mm | - | 382 W/m² | - |
| 1777485012 | 17.78° C | 56% | 1013 hPa | 0 mm | - | 516 W/m² | - |
| 1777484710 | 18.33° C | 52% | 1013.2 hPa | 0 mm | - | 441 W/m² | - |
| 1777484406 | 18.33° C | 51% | 1013.4 hPa | 0 mm | - | 591 W/m² | - |
| 1777484102 | 18.89° C | 54% | 1013.5 hPa | 0 mm | - | 660 W/m² | - |
| 1777483798 | 18.89° C | 54% | 1013.4 hPa | 0 mm | - | 653 W/m² | - |
| 1777483495 | 18.33° C | 53% | 1013.6 hPa | 0 mm | - | 732 W/m² | - |
| 1777483190 | 18.33° C | 52% | 1013.6 hPa | 0 mm | - | 729 W/m² | - |
| 1777482887 | 18.33° C | 53% | 1013.9 hPa | 0 mm | - | 644 W/m² | - |
* Rain latest hour (hover to see other rain measurements)
** Current wind speed in m/s (hover to see current wind gust speed)